124  
NZUS01 KABQ 260510  
RWRABQ  
NEW MEXICO REGIONAL WEATHER ROUNDUP  
NATIONAL WEATHER SERVICE ALBUQUERQUE NM  
1100 PM MDT SAT MAR 25 2017  
 
-----NORTHERN NEW MEXICO AND NEARBY AREAS-----  
 
 
CITY SKY/WX TMP DP RH WIND PRES REMARKS
 
ALBUQUERQUE FAIR 54 27 35 W24G36 29.93R  
BELEN FAIR 53 27 35 W15G21 29.94R  
SOCORRO FAIR 61 17 18 W14G20 29.91R  
 
CITY SKY/WX TMP DP RH WIND PRES REMARKS
 
SANTA FE CLOUDY 49 33 54 NW12 29.94R  
LOS ALAMOS CLOUDY 43 30 60 W22G36 29.92S  
TAOS N/A 43 30 61 W14G26 29.96R  
ANGEL FIRE DRIZZLE 37 30 77 W21 29.97R  
FARMINGTON CLOUDY 42 39 89 SE6 29.94F  
GRANTS CLOUDY 39 34 80 CALM 30.04F  
GALLUP CLOUDY 37 34 89 S7 30.00F  
FLAGSTAFF PTCLDY 39 30 70 W7 30.03R  
DURANGO LGT RAIN 38 33 82 SW9 29.95F  
 
CITY SKY/WX TMP DP RH WIND PRES REMARKS
 
ALAMOSA CLOUDY 42 33 70 S15G23 29.91R  
DENVER CLOUDY 47 35 63 S14 29.82S  
CLAYTON CLEAR 44 32 62 SE7 29.84F  
RATON CLOUDY 48 27 44 SW9 29.84F  
LAS VEGAS CLEAR 46 17 31 S15 29.87F  
CLINES CORNERS NOT AVBL  
SANTA ROSA NOT AVBL  
TUCUMCARI CLEAR 57 26 30 SW13G23 29.80S  
CLOVIS (AFB) CLEAR 48 30 48 SE6 29.85F  
CLOVIS CLEAR 50 27 40 S9 29.85F  
AMARILLO CLEAR 52 30 43 SE13 29.87F  
 
-----SOUTHERN NEW MEXICO AND NEARBY AREAS-----  
 
 
CITY SKY/WX TMP DP RH WIND PRES REMARKS
 
T OR C PTCLDY 58 15 18 W9 29.90R  
DEMING PTCLDY 60 23 24 W13 29.92S  
TUCSON CLOUDY 69 26 20 NW8 29.96R  
EL PASO PTCLDY 74 8 8 SW22G33 29.86R  
LAS CRUCES PTCLDY 62 15 16 W13 29.92R  
 
CITY SKY/WX TMP DP RH WIND PRES REMARKS
 
ALAMOGORDO CLOUDY 60 14 16 S12 29.88S  
RUIDOSO CLEAR 50 10 20 SE8 29.97F  
ROSWELL CLEAR 59 24 26 S10 N/A  
CARLSBAD CLEAR 62 26 25 S9 29.83F  
HOBBS CLEAR 54 25 32 SE3 29.87F  
 
CLICK HERE TO GO TO PREVIOUS BULLETINS.

The Nexlab NM Page Main Text Page